TimeEST,TemperatureF,Dew PointF,Humidity,Sea Level PressureIn,VisibilityMPH,Wind Direction,Wind SpeedMPH,Gust SpeedMPH,PrecipitationIn,Events,Conditions,WindDirDegrees,DateUTC
12:15 AM,40.3,37.6,90,30.33,10.0,North,5.8,-,N/A,Rain,Rain,360,2013-01-15 05:15:00
12:35 AM,40.1,37.4,90,30.32,7.0,North,4.6,-,0.02,Rain,Light Rain,10,2013-01-15 05:35:00
12:55 AM,40.1,37.8,91,30.32,10.0,Calm,Calm,-,0.02,,Light Drizzle,0,2013-01-15 05:55:00
1:15 AM,40.1,37.6,91,30.32,7.0,Calm,Calm,-,N/A,Rain,Rain,0,2013-01-15 06:15:00
1:35 AM,40.1,38.3,93,30.30,5.0,Calm,Calm,-,0.03,Rain,Rain,0,2013-01-15 06:35:00
1:55 AM,40.1,39.2,97,30.30,4.0,Calm,Calm,-,0.05,Rain,Rain,0,2013-01-15 06:55:00
2:15 AM,40.1,39.0,96,30.30,10.0,Calm,Calm,-,0.01,Rain,Light Rain,0,2013-01-15 07:15:00
2:35 AM,39.9,39.4,98,30.29,5.0,Calm,Calm,-,0.03,Rain,Rain,0,2013-01-15 07:35:00
2:55 AM,40.1,39.6,98,30.28,4.0,Calm,Calm,-,0.05,Rain,Rain,0,2013-01-15 07:55:00
3:15 AM,40.1,39.6,98,30.30,4.0,NW,4.6,-,0.03,Rain,Rain,310,2013-01-15 08:15:00
3:35 AM,39.9,39.4,98,30.30,5.0,Calm,Calm,-,0.06,Rain,Rain,0,2013-01-15 08:35:00
4:15 AM,39.7,39.2,98,30.30,5.0,NW,6.9,-,0.02,Rain,Rain,320,2013-01-15 09:15:00
4:35 AM,39.6,38.8,97,30.31,7.0,NW,9.2,-,0.05,Rain,Rain,320,2013-01-15 09:35:00
4:55 AM,39.4,38.3,96,30.27,10.0,Calm,Calm,-,0.06,,Drizzle,0,2013-01-15 09:55:00
5:15 AM,39.4,38.5,97,30.27,10.0,North,3.5,-,N/A,,Overcast,360,2013-01-15 10:15:00
5:55 AM,39.4,38.3,96,30.29,10.0,Calm,Calm,-,N/A,,Overcast,0,2013-01-15 10:55:00
6:15 AM,39.4,38.3,96,30.28,10.0,North,4.6,-,N/A,,Overcast,360,2013-01-15 11:15:00
6:35 AM,39.2,38.3,97,30.29,7.0,North,3.5,-,N/A,Rain,Rain,350,2013-01-15 11:35:00
6:55 AM,39.6,38.1,95,30.30,7.0,NNE,3.5,-,N/A,Rain,Light Rain,30,2013-01-15 11:55:00
7:15 AM,39.9,38.7,95,30.33,10.0,NNW,6.9,-,N/A,,Overcast,340,2013-01-15 12:15:00
7:35 AM,39.9,38.7,95,30.33,4.0,NNW,3.5,-,N/A,Rain,Rain,340,2013-01-15 12:35:00
7:55 AM,39.4,38.8,98,30.33,1.5,Calm,Calm,-,0.02,Rain,Heavy Rain,0,2013-01-15 12:55:00
8:15 AM,39.7,39.2,98,30.34,3.0,Calm,Calm,-,0.01,,Heavy Drizzle,0,2013-01-15 13:15:00
8:35 AM,40.1,39.6,98,30.35,5.0,North,4.6,-,0.01,,Overcast,350,2013-01-15 13:35:00
8:55 AM,40.1,39.6,98,30.36,3.0,North,4.6,-,0.01,Rain,Rain,10,2013-01-15 13:55:00
9:15 AM,40.1,39.6,98,30.35,2.5,Calm,Calm,-,0.01,,Drizzle,0,2013-01-15 14:15:00
9:35 AM,40.3,39.7,98,30.36,4.0,North,4.6,-,0.01,Rain,Light Rain,360,2013-01-15 14:35:00
9:55 AM,40.3,39.6,97,30.38,5.0,NNW,6.9,-,0.02,Rain,Rain,340,2013-01-15 14:55:00
10:15 AM,40.3,39.4,97,30.38,5.0,NNW,3.5,-,0.01,Rain,Light Rain,340,2013-01-15 15:15:00
10:35 AM,40.5,39.6,97,30.37,3.0,Calm,Calm,-,0.02,Rain,Light Rain,0,2013-01-15 15:35:00
10:55 AM,40.5,39.6,97,30.38,3.0,NNW,5.8,-,0.03,Rain,Light Rain,340,2013-01-15 15:55:00
11:15 AM,40.6,39.9,97,30.35,4.0,NNE,3.5,-,0.02,Rain,Light Rain,20,2013-01-15 16:15:00
11:35 AM,40.6,39.7,97,30.34,5.0,North,3.5,-,0.02,Rain,Light Rain,350,2013-01-15 16:35:00
11:55 AM,41.0,39.7,95,30.35,5.0,NNW,5.8,-,0.03,Rain,Rain,340,2013-01-15 16:55:00
12:15 PM,40.8,39.7,96,30.34,5.0,North,4.6,-,0.02,Rain,Rain,350,2013-01-15 17:15:00
12:35 PM,40.6,39.7,97,30.32,5.0,Calm,Calm,-,0.03,Rain,Light Rain,0,2013-01-15 17:35:00
12:55 PM,40.8,39.7,96,30.32,7.0,NNW,4.6,-,0.04,Rain,Light Rain,340,2013-01-15 17:55:00
1:15 PM,41.0,39.7,95,30.32,7.0,North,3.5,-,0.01,Rain,Light Rain,10,2013-01-15 18:15:00
1:35 PM,41.0,40.1,97,30.30,7.0,NNE,4.6,-,0.01,Rain,Light Rain,20,2013-01-15 18:35:00
1:55 PM,41.0,39.7,95,30.28,5.0,North,3.5,-,0.02,Rain,Light Rain,10,2013-01-15 18:55:00
2:35 PM,41.2,40.3,97,30.27,5.0,Calm,Calm,-,0.02,Rain,Light Rain,0,2013-01-15 19:35:00
2:55 PM,41.0,39.9,96,30.29,7.0,Calm,Calm,-,0.03,Rain,Light Rain,0,2013-01-15 19:55:00
3:15 PM,41.0,39.7,95,30.31,5.0,North,3.5,-,0.01,Rain,Rain,350,2013-01-15 20:15:00
3:35 PM,41.0,39.7,95,30.30,5.0,Calm,Calm,-,0.02,Rain,Light Rain,0,2013-01-15 20:35:00
3:55 PM,41.0,40.1,97,30.31,4.0,NNW,4.6,-,0.03,Rain,Rain,340,2013-01-15 20:55:00
4:15 PM,40.6,40.1,98,30.29,2.5,Calm,Calm,-,0.02,Rain,Rain,0,2013-01-15 21:15:00
4:35 PM,40.6,40.1,98,30.30,2.5,North,3.5,-,0.04,Rain,Rain,360,2013-01-15 21:35:00
4:55 PM,40.5,40.1,99,30.28,3.0,Calm,Calm,-,0.06,Rain,Rain,0,2013-01-15 21:55:00
5:15 PM,40.6,40.1,98,30.28,4.0,Calm,Calm,-,0.02,Rain,Rain,0,2013-01-15 22:15:00
5:35 PM,40.6,40.1,98,30.29,4.0,ENE,5.8,-,0.04,Rain,Rain,70,2013-01-15 22:35:00
5:55 PM,40.1,39.4,97,30.28,7.0,East,6.9,-,0.05,Rain,Light Rain,80,2013-01-15 22:55:00
6:15 PM,39.2,38.3,97,30.29,5.0,ENE,4.6,-,0.01,Rain,Light Rain,70,2013-01-15 23:15:00
6:35 PM,39.0,37.9,96,30.29,4.0,NE,4.6,-,0.03,Rain,Rain,40,2013-01-15 23:35:00
6:55 PM,38.3,37.4,97,30.28,7.0,Calm,Calm,-,0.05,Rain,Light Rain,0,2013-01-15 23:55:00
7:15 PM,38.3,37.6,97,30.29,4.0,Calm,Calm,-,0.01,Rain,Rain,0,2013-01-16 00:15:00
7:35 PM,38.3,37.6,97,30.30,4.0,Calm,Calm,-,0.02,Rain,Rain,0,2013-01-16 00:35:00
7:55 PM,38.3,37.6,97,30.29,3.0,NNE,3.5,-,0.06,Rain,Rain,20,2013-01-16 00:55:00
8:15 PM,38.3,37.8,98,30.27,4.0,NE,3.5,-,0.02,Rain,Rain,40,2013-01-16 01:15:00
8:35 PM,38.3,37.4,97,30.27,3.0,Calm,Calm,-,0.04,Rain,Rain,0,2013-01-16 01:35:00
8:55 PM,38.3,37.4,97,30.28,3.0,Calm,Calm,-,0.09,Rain,Rain,0,2013-01-16 01:55:00
9:15 PM,37.8,36.9,97,30.27,3.0,Calm,Calm,-,0.03,Rain,Rain,0,2013-01-16 02:15:00
9:35 PM,37.8,36.9,97,30.25,5.0,NE,4.6,-,0.04,Rain,Light Rain,50,2013-01-16 02:35:00
9:55 PM,37.8,37.4,99,30.23,4.0,NE,5.8,-,0.04,Rain,Rain,50,2013-01-16 02:55:00
10:15 PM,38.1,36.9,95,30.21,4.0,NE,6.9,-,N/A,Rain,Light Rain,50,2013-01-16 03:15:00
10:35 PM,38.3,37.0,95,30.23,4.0,NNE,3.5,-,0.01,,Drizzle,20,2013-01-16 03:35:00
10:55 PM,37.8,36.7,96,30.20,2.5,ENE,9.2,-,0.03,Rain,Rain,60,2013-01-16 03:55:00
11:15 PM,37.6,36.7,97,30.21,2.0,Calm,Calm,-,0.03,Rain,Rain,0,2013-01-16 04:15:00
11:35 PM,37.4,36.5,97,30.20,2.5,NE,4.6,-,0.07,Rain,Rain,40,2013-01-16 04:35:00
11:55 PM,37.4,36.7,97,30.20,2.5,NE,3.5,-,0.09,Rain,Heavy Rain,40,2013-01-16 04:55:00